Dutch Harbor, AK

6:36 AM AKST on February 14, 2016 (GMT -0900)
Unalaska

Weather History for PADU - March, 2014

Change the Weather History Date:

Saturday, March 1, 2014

  Actual Average Record
Temperature  
Mean Temperature 38 °F -  
Max Temperature 39 °F 36 °F 51 °F (2009)
Min Temperature 37 °F 24 °F 13 °F (1992)
Degree Days  
Heating Degree Days 27    
Moisture  
Dew Point 35 °F    
Average Humidity 86    
Maximum Humidity 93    
Minimum Humidity 79    
Precipitation  
Precipitation 0.20 in - - ()
Sea Level Pressure  
Sea Level Pressure 29.57 in    
Wind  
Wind Speed 28 mph (East)    
Max Wind Speed 36 mph    
Max Gust Speed 50 mph    
Visibility 6 miles    
Events Rain    
Averages and records for this station are not official NWS values.
T = Trace of Precipitation, MM = Missing Value Source: NWS Daily Summary

Daily Weather History Graph

Daily Weather History Graph

Search for Another Location

Airport or City:

Trip Planner

Search our weather history database for the weather conditions in past years. The results will help you decide how hot, cold, wet, or windy it might be!

Date:

Astronomy

Mar. 01, 2014 Rise Set
Actual Time 8:53 AM AKST 7:44 PM AKST
Civil Twilight 8:18 AM AKST 8:19 PM AKST
Nautical Twilight 7:37 AM AKST 9:00 PM AKST
Astronomical Twilight 6:56 AM AKST 9:41 PM AKST
Moon 8:45 AM AKST (3/1) 9:01 PM AKST (3/1)
Length of Visible Light 12h 01m
Length of Day
10h 50m
New Moon, 0% of the Moon is Illuminated
Mar 1
New Moon
Mar 8
First Quarter
Mar 16
Full
Mar 23
Last Quarter
Mar 30
New

Hourly Weather History & Observations

Time (AKST) Temp. Windchill Dew Point Humidity Pressure Visibility Wind Dir Wind Speed Gust Speed Precip Events Conditions
12:56 AM 39.9 °F 29.7 °F 34.0 °F 79% 29.62 in 10.0 mi East 23.0 mph 32.2 mph N/A   Overcast
1:56 AM 39.0 °F 29.3 °F 34.0 °F 82% 29.60 in 10.0 mi East 19.6 mph 28.8 mph 0.00 in   Overcast
2:42 AM 37.4 °F 25.6 °F 35.6 °F 93% 29.57 in 4.0 mi East 26.5 mph 35.7 mph 0.00 in Rain Light Rain
2:56 AM 39.0 °F 27.2 °F 35.1 °F 86% 29.59 in 5.0 mi East 29.9 mph 38.0 mph 0.00 in Rain Light Rain
3:21 AM 39.2 °F 27.2 °F 35.6 °F 87% 29.57 in 4.0 mi East 31.1 mph 40.3 mph 0.00 in Rain Light Rain
3:32 AM 39.2 °F 27.6 °F 35.6 °F 87% 29.57 in 8.0 mi East 28.8 mph 39.1 mph 0.00 in Rain Light Rain
3:56 AM 39.0 °F 28.3 °F 35.1 °F 86% 29.59 in 10.0 mi East 24.2 mph 34.5 mph 0.00 in Rain Light Rain
4:56 AM 39.0 °F 27.8 °F 35.1 °F 86% 29.57 in 7.0 mi East 26.5 mph 33.4 mph 0.00 in Rain Light Rain
5:56 AM 39.9 °F 28.4 °F 36.0 °F 86% 29.55 in 8.0 mi East 29.9 mph 34.5 mph 0.01 in Rain Light Rain
6:07 AM 39.2 °F 27.0 °F 35.6 °F 87% 29.54 in 8.0 mi East 32.2 mph 41.4 mph 0.00 in Rain Light Rain
6:33 AM 39.2 °F 27.2 °F 35.6 °F 87% 29.54 in 7.0 mi East 31.1 mph 40.3 mph 0.01 in Rain Light Rain
6:56 AM 39.9 °F 28.0 °F 36.0 °F 86% 29.56 in 3.0 mi East 32.2 mph 40.3 mph 0.01 in Rain Light Rain
7:01 AM 39.2 °F 27.4 °F 35.6 °F 87% 29.54 in 3.0 mi East 29.9 mph 40.3 mph 0.00 in Rain Light Rain
7:42 AM 39.2 °F 27.4 °F 35.6 °F 87% 29.54 in 8.0 mi ESE 29.9 mph 41.4 mph 0.03 in Rain Light Rain
7:50 AM 39.2 °F 27.2 °F 35.6 °F 87% 29.54 in 7.0 mi East 31.1 mph 40.3 mph 0.03 in Rain Light Rain
7:56 AM 39.9 °F 27.6 °F 36.0 °F 86% 29.56 in 6.0 mi East 34.5 mph 40.3 mph 0.03 in Rain Light Rain
7:59 AM 39.2 °F 26.6 °F 35.6 °F 87% 29.54 in 6.0 mi East 34.5 mph - 0.00 in Rain Light Rain
8:56 AM 39.9 °F 27.5 °F 36.0 °F 86% 29.57 in 4.0 mi East 35.7 mph 49.5 mph 0.01 in Rain Light Rain
9:13 AM 39.2 °F 27.2 °F 35.6 °F 87% 29.55 in 5.0 mi East 31.1 mph 38.0 mph 0.04 in Rain Light Rain
9:56 AM 39.9 °F 27.5 °F 36.0 °F 86% 29.57 in 8.0 mi East 35.7 mph 43.7 mph 0.06 in Rain Light Rain
10:00 AM 39.2 °F 26.8 °F 35.6 °F 87% 29.55 in 5.0 mi East 33.4 mph 42.6 mph 0.00 in Rain Light Rain
10:01 AM 39.2 °F 26.8 °F 35.6 °F 87% 29.55 in 5.0 mi East 33.4 mph 42.6 mph 0.00 in Rain Light Rain
10:07 AM 39.2 °F 26.8 °F 35.6 °F 87% 29.55 in 2.5 mi East 33.4 mph 48.3 mph 0.00 in Rain Light Rain
10:09 AM 39.2 °F 26.6 °F 35.6 °F 87% 29.55 in 5.0 mi East 34.5 mph 48.3 mph 0.00 in Rain Light Rain
10:56 AM 39.9 °F 27.6 °F 36.0 °F 86% 29.59 in 5.0 mi East 34.5 mph 49.5 mph 0.02 in   Overcast
11:49 AM 39.2 °F 27.6 °F 35.6 °F 87% 29.58 in 8.0 mi East 28.8 mph 42.6 mph 0.00 in Rain Light Rain
11:56 AM 39.9 °F 29.0 °F 36.0 °F 86% 29.60 in 8.0 mi East 26.5 mph 42.6 mph 0.00 in Rain Light Rain
12:03 PM 39.2 °F 27.6 °F 35.6 °F 87% 29.58 in 10.0 mi East 28.8 mph 35.7 mph 0.00 in Rain Light Rain
12:25 PM 39.2 °F 27.4 °F 35.6 °F 87% 29.59 in 10.0 mi East 29.9 mph 47.2 mph 0.00 in Rain Light Rain
12:48 PM 39.2 °F 28.3 °F 35.6 °F 87% 29.59 in 6.0 mi East 25.3 mph 42.6 mph 0.00 in Rain Light Rain
12:56 PM 39.9 °F 28.6 °F 36.0 °F 86% 29.60 in 8.0 mi East 28.8 mph 44.9 mph 0.00 in Rain Light Rain
1:15 PM 39.2 °F 26.6 °F 35.6 °F 87% 29.59 in 1.5 mi East 34.5 mph 44.9 mph 0.00 in Rain Light Rain
1:56 PM 39.0 °F 26.8 °F 35.1 °F 86% 29.61 in 1.5 mi East 32.2 mph 42.6 mph 0.01 in Rain Light Rain
1:58 PM 39.2 °F 27.0 °F 35.6 °F 87% 29.59 in 1.5 mi East 32.2 mph 42.6 mph 0.00 in Rain Light Rain
2:20 PM 39.2 °F 26.6 °F 35.6 °F 87% 29.58 in 5.0 mi East 34.5 mph 38.0 mph 0.00 in Rain Light Rain
2:54 PM 39.2 °F 28.5 °F 35.6 °F 87% 29.58 in 5.0 mi East 24.2 mph 33.4 mph 0.01 in Rain Light Rain
3:56 PM 39.0 °F 26.8 °F 34.0 °F 82% 29.58 in 10.0 mi East 32.2 mph 41.4 mph 0.02 in Rain Light Rain
4:20 PM 39.2 °F 28.0 °F 33.8 °F 81% 29.56 in 10.0 mi East 26.5 mph 39.1 mph 0.00 in Rain Light Rain
4:36 PM 39.2 °F 27.8 °F 33.8 °F 81% 29.55 in 10.0 mi East 27.6 mph 33.4 mph 0.00 in Rain Light Rain
4:56 PM 39.0 °F 28.0 °F 34.0 °F 82% 29.57 in 7.0 mi East 25.3 mph 36.8 mph 0.00 in Rain Light Rain
5:18 PM 37.4 °F 24.6 °F 33.8 °F 87% 29.55 in 2.5 mi East 32.2 mph 39.1 mph 0.00 in Rain Light Rain
5:30 PM 37.4 °F 25.9 °F 33.8 °F 87% 29.56 in 3.0 mi East 25.3 mph 33.4 mph 0.00 in Rain Light Rain
5:56 PM 37.9 °F 26.1 °F 34.0 °F 86% 29.57 in 3.0 mi East 27.6 mph 33.4 mph 0.00 in Rain Light Rain
6:03 PM 37.4 °F 25.6 °F 33.8 °F 87% 29.56 in 3.0 mi East 26.5 mph 32.2 mph 0.00 in Rain Light Rain
6:56 PM 37.9 °F 27.1 °F 33.1 °F 83% 29.58 in 5.0 mi East 23.0 mph - 0.02 in Rain Light Rain
7:56 PM 37.9 °F 27.3 °F 33.1 °F 83% 29.58 in 8.0 mi East 21.9 mph - 0.00 in Rain Light Rain
8:56 PM 37.9 °F 26.8 °F 32.0 °F 79% 29.59 in 10.0 mi East 24.2 mph 31.1 mph 0.00 in   Overcast
9:56 PM 37.9 °F 28.5 °F 33.1 °F 83% 29.60 in 10.0 mi East 17.3 mph - 0.00 in Rain Light Rain
10:56 PM 37.9 °F 28.9 °F 33.1 °F 83% 29.60 in 9.0 mi East 16.1 mph 20.7 mph 0.01 in Rain Light Rain
11:56 PM 39.0 °F 31.4 °F 33.1 °F 79% 29.58 in 10.0 mi East 12.7 mph 18.4 mph 0.00 in Rain Light Rain